Regional Weather Roundup
Issued by NWS Newport/Morehead, NC

Current Version | Previous Version | Text Only | Print | Product List | Glossary On
Versions: 1 2 3 4 5 6 7 8 9 10 11 12 13 14 15 16 17 18 19 20 21 22 23 24 25 26 27 28 29 30 31 32 33 34 35 36 37 38 39 40 41 42 43 44 45 46 47 48 49 50
000
ASUS42 KMHX 040212
RWRMHX
WEATHER ROUNDUP FOR EASTERN NORTH CAROLINA
NATIONAL WEATHER SERVICE NEWPORT/MOREHEAD CITY NC
900 PM EST TUE MAR 03 2015

NOTE: "FAIR" INDICATES FEW OR NO CLOUDS BELOW 12,000 FEET
WITH NO SIGNIFICANT WEATHER AND/OR OBSTRUCTIONS TO VISIBILITY

NCZ015>017-031-032-045>047-102-103-040300-
NORTH COAST

CITY           SKY/WX    TMP DP  RH WIND       PRES   REMARKS
EDENTON        CLOUDY    41  38  90 W5        30.13F
ELIZABETH CITY CLOUDY    45  39  81 SW5       30.12F
KITTY HAWK     CLOUDY    53  51  94 S10G16    30.11F
MANTEO         CLOUDY    45  45 100 S13       30.13S

$$

NCZ045>047-081-094-103-104-040300-
CENTRAL COAST

CITY           SKY/WX    TMP DP  RH WIND       PRES   REMARKS
FRISCO         CLOUDY    54  51  90 S13       30.15F
SWANQUARTER      N/A     46 N/A N/A S6        30.09F

$$

NCZ095-097-098-100-101-040300-
SOUTHERN COAST

CITY           SKY/WX    TMP DP  RH WIND       PRES   REMARKS
BEAUFORT       LGT RAIN  58  58 100 S14       30.13F
CEDAR ISLAND     N/A     59 N/A N/A S12G21    30.18S
JACKSONVILLE   FOG       46  45  96 SE3       30.13F VSB 1/2
PINEY ISLAND     N/A    N/A N/A N/A MISG      30.14F
WILMINGTON     CLOUDY    46  44  93 CALM      30.15F


$$

NCZ011>013-027>030-043-044-078>080-089-090>093-098-040300-
COASTAL PLAIN

CITY           SKY/WX    TMP DP  RH WIND       PRES   REMARKS
AHOSKIE        DRIZZLE   37  36  96 CALM      30.13F
CLINTON        CLOUDY    40  40 100 CALM      30.17F FOG
ELIZABETHTOWN  CLOUDY    40  40 100 CALM      30.17S FOG
GOLDSBORO      CLOUDY    40  40 100 W2        30.13F FOG
GREENVILLE     DRIZZLE   41  41 100 CALM      30.15F
HAVELOCK       RAIN      45  43  93 SE3       30.15F
KENANSVILLE    CLOUDY    40  40  99 W3        30.16S FOG
KINSTON        NOT AVBL
NEW BERN       LGT RAIN  46  44  93 S6        30.14F FOG
RICHLANDS      CLOUDY    45  41  87 CALM      30.15F
ROCKY MOUNT    CLOUDY    39  37  92 CALM      30.14F FOG
WASHINGTON     CLOUDY    42  41  96 W3        30.14S FOG
WHITEVILLE     CLOUDY    42  41  95 CALM      30.16S FOG

$$

AMZ130-135-150-152-154-156-158-170-250-252-270-ANZ085-086-088-633-658-670-040300-
MARINE OBSERVATIONS

STATION/POSITION TIME  TEMP    WIND        PRES    WAVE   SWELL
                       AIR SEA DIR/SP/G            HT/PER HT/PER
                 (UTC) (F)     (DEG/KT/KT) (MB)    (FT/S) (FT/S)
CHESAPEAKE LIGHT 0100   39     210/ 15/ 15 1020.1
64 E VA BEACH    0150   59 58  190/ 23/ 27 1018.6    6/ 6   2/15
DUCK             0100   45 36  190/ 12/ 13 1019.4
2 E DUCK         0111      35                N/A     3/ 5
10 NE DUCK       0122      37                N/A     3/ 9
OREGON INLET     0100   47 41  170/ 10/ 13 1021.2
HATTERAS CG      0100   54 44  170/ 10/ 14 1021.8
CAPE LOOKOUT     0200   58     170/ 17/ 18 1020.2
BEAUFORT LAB     0100   54 44  160/  7/  9 1020.0
27 SE WRIGHTSVLE NOT AVBL
5 SE WRIGHTSVLE  NOT AVBL
225 S CAPE HAT   0150   68 72  150/ 16/ 19 1024.8    7/ 8   5/ 8
41 SE CHARLESTON 0150   62 68   70/  4/  6 1021.0    5/ 8   5/ 8

$$


USA.gov is the U.S. government's official web portal to all federal, state and local government web resources and services.